ネオワイズ彗星

C/2014 N3 ( NEOWISE )

English version
Home page
Updated on March 3, 2018

---------------------------------------------------------------------

・ プロフィール

発見日 2014年7月4日
発見光度 20等
発見者 Near-Earth Object Wide-field Infrared Survey Explorer

・ 写真集

・ 軌道要素

Epoch 2015 Feb. 27.0 TT = JDT 2457080.5
T 2015 Mar. 13.23224 TT                                 MPCW
q   3.8822684            (2000.0)            P               Q
z  +0.0001357      Peri.  353.57110     +0.95234672     -0.05563532
 +/-0.0000004      Node    19.92686     +0.30403779     +0.09440602
e   0.9994732      Incl.   61.63487     +0.02442822     +0.99397798
From 1502 observations 2014 July 4-2016 Dec. 4, mean residual 0".5.

・ 星図

・ 光度変化

        m1 = 6.0 + 5 logΔ + 10.0 log r

---------------------------------------------------------------------

軌道要素はM.P.E.C. 2017-E59に掲載されたものです。
星図はステラナビゲータ Ver.8 (アストロアーツ) で作成したものです。
光度グラフはComet for Windowsで作成したものです。

---------------------------------------------------------------------

Copyright(C) Seiichi Yoshida (comet@aerith.net). All rights reserved.